| time (UTC) | temp C | wind direction | speed KPH | gust KPH | rain 1hr cm | rain 24hr cm | rain mn cm | humidity % | barometer mb |
| 20260503022017 | 9 | 72 | 0.0 | 3.2 | 0.05 | 0.10 | 0.10 | 91 | 1011.3 |
| 20260503020903 | 9 | 62 | 0.0 | 3.2 | 0.08 | 0.10 | 0.10 | 90 | 1011.3 |
| 20260503020003 | 10 | 61 | 0.0 | 1.6 | 0.05 | 0.08 | 0.08 | 90 | 1011.4 |
| 20260503015617 | 10 | 60 | 0.0 | 1.6 | 0.05 | 0.08 | 0.08 | 90 | 1011.4 |
| 20260503014503 | 10 | 60 | 0.0 | 1.6 | 0.03 | 0.05 | 0.05 | 90 | 1011.4 |
| 20260503013603 | 10 | 57 | 0.0 | 3.2 | 0.03 | 0.05 | 0.05 | 90 | 1011.4 |
| 20260503012703 | 10 | 63 | 0.0 | 3.2 | 0.05 | 0.05 | 0.05 | 89 | 1011.5 |
| 20260503011803 | 10 | 28 | 0.0 | 3.2 | 0.03 | 0.03 | 0.03 | 89 | 1011.4 |
| 20260503010903 | 10 | 56 | 0.0 | 1.6 | 0.03 | 0.03 | 0.03 | 89 | 1011.6 |
| 20260503010003 | 10 | 55 | 0.0 | 1.6 | 0.03 | 0.03 | 0.03 | 88 | 1011.6 |
| 20260503005403 | 10 | 55 | 0.0 | 1.6 | 0.03 | 0.03 | 0.03 | 88 | 1011.6 |
| 20260503004503 | 10 | 55 | 0.0 | 1.6 | 0.03 | 0.03 | 0.03 | 87 | 1011.8 |
| 20260503003603 | 10 | 55 | 0.0 | 1.6 | 0.03 | 0.03 | 0.03 | 87 | 1011.7 |
| 20260503002916 | 10 | 55 | 0.0 | 1.6 | 0.00 | 0.00 | 0.00 | 87 | 1011.8 |
| 20260503002018 | 10 | 54 | 0.0 | 1.6 | 0.00 | 0.00 | 0.00 | 87 | 1011.4 |
| 20260503000903 | 10 | 54 | 0.0 | 1.6 | 0.00 | 0.00 | 0.00 | 87 | 1011.8 |
| 20260503000003 | 10 | 54 | 0.0 | 1.6 | 0.00 | 0.00 | 0.00 | 87 | 1011.5 |
| 20260502235403 | 10 | 0 | 0.0 | 0.0 | 0.00 | 0.00 | 0.00 | 87 | 1011.7 |
| 20260502234503 | 10 | 0 | 0.0 | 0.0 | 0.00 | 0.00 | 0.00 | 87 | 1011.7 |
| 20260502233603 | 10 | 0 | 0.0 | 0.0 | 0.00 | 0.00 | 0.00 | 88 | 1011.8 |
| 20260502232918 | 10 | 0 | 0.0 | 0.0 | 0.00 | 0.00 | 0.00 | 88 | 1012.0 |
| 20260502231803 | 10 | 0 | 0.0 | 0.0 | 0.00 | 0.00 | 0.00 | 88 | 1012.1 |
| 20260502230903 | 10 | 0 | 0.0 | 0.0 | 0.00 | 0.00 | 0.00 | 88 | 1011.9 |
| 20260502230004 | 10 | 0 | 0.0 | 0.0 | 0.00 | 0.00 | 0.00 | 88 | 1012.1 |
| 20260502225403 | 10 | 0 | 0.0 | 0.0 | 0.00 | 0.00 | 0.00 | 87 | 1012.5 |
| 20260502224717 | 10 | 0 | 0.0 | 0.0 | 0.00 | 0.00 | 0.00 | 87 | 1012.3 |
| 20260502223603 | 10 | 54 | 0.0 | 1.6 | 0.00 | 0.00 | 0.00 | 87 | 1012.1 |
| 20260502222703 | 10 | 0 | 0.0 | 0.0 | 0.00 | 0.00 | 0.00 | 87 | 1012.5 |
| 20260502221803 | 10 | 0 | 0.0 | 0.0 | 0.00 | 0.00 | 0.00 | 87 | 1012.5 |
| 20260502220903 | 10 | 0 | 0.0 | 0.0 | 0.00 | 0.00 | 0.00 | 87 | 1012.6 |
| 20260502220003 | 10 | 0 | 0.0 | 0.0 | 0.00 | 0.00 | 0.00 | 86 | 1012.7 |
| 20260502215403 | 10 | 0 | 0.0 | 0.0 | 0.00 | 0.00 | 0.00 | 86 | 1012.6 |
| 20260502214503 | 10 | 54 | 0.0 | 1.6 | 0.00 | 0.00 | 0.00 | 86 | 1012.6 |
| 20260502213603 | 10 | 54 | 0.0 | 1.6 | 0.00 | 0.00 | 0.00 | 86 | 1012.3 |
| 20260502212703 | 10 | 46 | 0.0 | 3.2 | 0.00 | 0.00 | 0.00 | 86 | 1012.6 |
| 20260502212017 | 10 | 38 | 0.0 | 1.6 | 0.00 | 0.00 | 0.00 | 86 | 1012.6 |
| 20260502210903 | 10 | 18 | 0.0 | 1.6 | 0.00 | 0.00 | 0.00 | 85 | 1012.9 |
| 20260502210004 | 10 | 0 | 0.0 | 0.0 | 0.00 | 0.00 | 0.00 | 85 | 1012.9 |
| 20260502205403 | 10 | 18 | 0.0 | 1.6 | 0.00 | 0.00 | 0.00 | 85 | 1013.0 |
| 20260502204503 | 10 | 17 | 0.0 | 1.6 | 0.00 | 0.00 | 0.00 | 85 | 1013.0 |
| 20260502203603 | 10 | 16 | 0.0 | 1.6 | 0.00 | 0.00 | 0.00 | 85 | 1013.0 |
| 20260502202703 | 10 | 16 | 0.0 | 1.6 | 0.00 | 0.00 | 0.00 | 85 | 1013.0 |
| 20260502201803 | 10 | 13 | 0.0 | 1.6 | 0.00 | 0.00 | 0.00 | 85 | 1013.0 |
| 20260502200903 | 10 | 311 | 0.0 | 3.2 | 0.00 | 0.00 | 0.00 | 84 | 1013.0 |
| 20260502200004 | 11 | 0 | 0.0 | 0.0 | 0.00 | 0.00 | 0.00 | 84 | 1012.9 |
| 20260502195617 | 11 | 0 | 0.0 | 0.0 | 0.00 | 0.00 | 0.00 | 83 | 1013.0 |
| 20260502194718 | 11 | 0 | 0.0 | 0.0 | 0.00 | 0.00 | 0.00 | 83 | 1013.0 |
| 20260502193603 | 11 | 248 | 0.0 | 1.6 | 0.00 | 0.00 | 0.00 | 81 | 1013.0 |
| 20260502192703 | 11 | 248 | 0.0 | 1.6 | 0.00 | 0.00 | 0.00 | 81 | 1013.0 |
| 20260502191803 | 11 | 251 | 0.0 | 1.6 | 0.00 | 0.00 | 0.00 | 81 | 1013.1 |
| 20260502190903 | 11 | 258 | 0.0 | 3.2 | 0.00 | 0.00 | 0.00 | 80 | 1012.9 |
| 20260502190004 | 11 | 263 | 0.0 | 3.2 | 0.00 | 0.00 | 0.00 | 80 | 1012.9 |
| 20260502185403 | 11 | 250 | 0.0 | 3.2 | 0.00 | 0.00 | 0.00 | 79 | 1012.8 |
| 20260502184503 | 11 | 226 | 0.0 | 3.2 | 0.00 | 0.00 | 0.00 | 79 | 1012.9 |
| 20260502183603 | 11 | 224 | 0.0 | 3.2 | 0.00 | 0.00 | 0.00 | 79 | 1012.7 |
| 20260502182703 | 11 | 221 | 0.0 | 1.6 | 0.00 | 0.00 | 0.00 | 78 | 1012.8 |
| 20260502181803 | 11 | 234 | 0.0 | 3.2 | 0.00 | 0.00 | 0.00 | 78 | 1012.9 |
| 20260502180903 | 12 | 228 | 0.0 | 3.2 | 0.00 | 0.00 | 0.00 | 77 | 1013.1 |
| 20260502170218 | 12 | 77 | 0.0 | 4.8 | 0.00 | 0.05 | 0.00 | 75 | 1012.9 |
| 20260502163603 | 13 | 239 | 0.0 | 3.2 | 0.00 | 0.10 | 0.00 | 70 | 1013.4 |
| 20260502162703 | 13 | 270 | 0.0 | 3.2 | 0.00 | 0.10 | 0.00 | 71 | 1013.3 |
| 20260502161803 | 13 | 229 | 0.0 | 3.2 | 0.00 | 0.10 | 0.00 | 71 | 1013.3 |
| 20260502160903 | 13 | 234 | 0.0 | 3.2 | 0.00 | 0.10 | 0.00 | 71 | 1013.4 |
| 20260502151803 | 15 | 241 | 1.6 | 4.8 | 0.00 | 0.10 | 0.00 | 66 | 1014.0 |
| 20260502151118 | 15 | 224 | 1.6 | 4.8 | 0.00 | 0.10 | 0.00 | 67 | 1013.9 |
| 20260502123603 | 14 | 288 | 1.6 | 6.4 | 0.00 | 0.38 | 0.00 | 71 | 1015.2 |
| 20260502122703 | 13 | 285 | 1.6 | 6.4 | 0.00 | 0.38 | 0.00 | 73 | 1015.3 |
| 20260502121803 | 13 | 276 | 1.6 | 4.8 | 0.00 | 0.38 | 0.00 | 74 | 1014.9 |
| 20260502120903 | 13 | 287 | 1.6 | 6.4 | 0.00 | 0.38 | 0.00 | 75 | 1015.5 |
| 20260502115403 | 13 | 274 | 1.6 | 6.4 | 0.00 | 0.38 | 0.00 | 75 | 1015.5 |
| 20260502114503 | 13 | 279 | 3.2 | 4.8 | 0.00 | 0.38 | 0.00 | 76 | 1015.4 |
| 20260502113603 | 13 | 292 | 3.2 | 4.8 | 0.00 | 0.38 | 0.00 | 77 | 1015.4 |
| 20260502112703 | 12 | 278 | 3.2 | 6.4 | 0.00 | 0.38 | 0.00 | 79 | 1015.6 |
| 20260502111803 | 13 | 272 | 3.2 | 9.7 | 0.00 | 0.38 | 0.00 | 78 | 1015.6 |
| 20260502110903 | 13 | 276 | 3.2 | 9.7 | 0.00 | 0.38 | 0.00 | 78 | 1015.4 |
| 20260502110004 | 12 | 282 | 3.2 | 9.7 | 0.00 | 0.38 | 0.00 | 79 | 1015.6 |
| 20260502105403 | 12 | 267 | 3.2 | 9.7 | 0.00 | 0.38 | 0.00 | 81 | 1015.6 |
| 20260502104717 | 12 | 276 | 3.2 | 9.7 | 0.00 | 0.38 | 0.00 | 82 | 1015.7 |
| 20260502103603 | 11 | 287 | 3.2 | 6.4 | 0.00 | 0.38 | 0.00 | 85 | 1015.7 |
| 20260502102917 | 11 | 290 | 1.6 | 6.4 | 0.00 | 0.38 | 0.00 | 86 | 1015.9 |
| 20260502101803 | 10 | 274 | 1.6 | 6.4 | 0.00 | 0.38 | 0.00 | 88 | 1015.6 |
| 20260502100903 | 10 | 285 | 3.2 | 6.4 | 0.00 | 0.38 | 0.00 | 88 | 1015.9 |
| 20260502090903 | 10 | 286 | 1.6 | 6.4 | 0.00 | 0.38 | 0.00 | 92 | 1015.8 |
| 20260502070903 | 10 | 266 | 1.6 | 6.4 | 0.00 | 0.38 | 0.00 | 93 | 1015.3 |
| 20260502070003 | 10 | 275 | 1.6 | 4.8 | 0.00 | 0.38 | 0.00 | 93 | 1015.4 |
| 20260502065403 | 10 | 283 | 1.6 | 4.8 | 0.00 | 0.38 | 0.00 | 93 | 1015.3 |
| 20260502064504 | 10 | 278 | 1.6 | 4.8 | 0.00 | 0.38 | 0.00 | 93 | 1015.4 |
| 20260502063603 | 10 | 292 | 1.6 | 3.2 | 0.00 | 0.38 | 0.00 | 93 | 1015.3 |
| 20260502062703 | 10 | 272 | 1.6 | 4.8 | 0.00 | 0.38 | 0.00 | 93 | 1015.3 |
| 20260502061803 | 10 | 277 | 1.6 | 4.8 | 0.00 | 0.38 | 0.00 | 93 | 1015.5 |
| 20260502060903 | 10 | 281 | 1.6 | 3.2 | 0.00 | 0.38 | 0.00 | 93 | 1015.4 |
| 20260502060004 | 10 | 284 | 1.6 | 4.8 | 0.00 | 0.38 | 0.00 | 93 | 1015.4 |
| 20260502055618 | 10 | 280 | 1.6 | 4.8 | 0.00 | 0.38 | 0.00 | 93 | 1015.3 |
| 20260502054503 | 10 | 282 | 1.6 | 4.8 | 0.00 | 0.38 | 0.00 | 93 | 1015.2 |
| 20260502053603 | 10 | 282 | 1.6 | 4.8 | 0.00 | 0.38 | 0.00 | 93 | 1015.4 |
| 20260502052703 | 10 | 299 | 1.6 | 4.8 | 0.00 | 0.38 | 0.00 | 93 | 1015.6 |
| 20260502052017 | 10 | 287 | 1.6 | 4.8 | 0.00 | 0.38 | 0.00 | 93 | 1015.6 |
| 20260502050903 | 10 | 277 | 1.6 | 6.4 | 0.00 | 0.38 | 0.00 | 93 | 1015.3 |
| 20260502050004 | 10 | 287 | 3.2 | 9.7 | 0.00 | 0.38 | 0.00 | 93 | 1015.7 |
| 20260502045617 | 10 | 284 | 3.2 | 9.7 | 0.00 | 0.38 | 0.00 | 93 | 1015.4 |
| 20260502044504 | 10 | 284 | 1.6 | 6.4 | 0.00 | 0.38 | 0.00 | 93 | 1015.2 |
| 20260502043603 | 10 | 282 | 3.2 | 6.4 | 0.00 | 0.38 | 0.00 | 93 | 1015.3 |
| 20260502042917 | 10 | 284 | 1.6 | 6.4 | 0.00 | 0.38 | 0.00 | 92 | 1015.5 |
| 20260502041803 | 10 | 279 | 1.6 | 6.4 | 0.00 | 0.38 | 0.00 | 92 | 1015.4 |
| 20260502040903 | 10 | 286 | 1.6 | 4.8 | 0.00 | 0.38 | 0.00 | 92 | 1015.5 |
| 20260502040004 | 10 | 272 | 1.6 | 6.4 | 0.00 | 0.38 | 0.00 | 92 | 1015.4 |
| 20260502035403 | 10 | 288 | 1.6 | 6.4 | 0.00 | 0.38 | 0.00 | 92 | 1015.3 |
| 20260502034503 | 10 | 297 | 1.6 | 4.8 | 0.00 | 0.38 | 0.00 | 92 | 1015.4 |
| 20260502033603 | 10 | 284 | 1.6 | 4.8 | 0.00 | 0.38 | 0.00 | 92 | 1015.6 |
| 20260502032703 | 10 | 295 | 1.6 | 6.4 | 0.00 | 0.38 | 0.00 | 92 | 1015.5 |
| 20260502031803 | 10 | 287 | 1.6 | 9.7 | 0.00 | 0.38 | 0.00 | 92 | 1015.6 |
| 20260502030903 | 10 | 295 | 3.2 | 6.4 | 0.00 | 0.38 | 0.00 | 92 | 1015.7 |
| 20260502030003 | 10 | 293 | 1.6 | 4.8 | 0.00 | 0.38 | 0.00 | 92 | 1015.8 |
| 20260502025403 | 10 | 289 | 1.6 | 3.2 | 0.00 | 0.38 | 0.00 | 91 | 1015.7 |
| 20260502024503 | 10 | 284 | 1.6 | 4.8 | 0.00 | 0.38 | 0.00 | 91 | 1015.7 |
| 20260502023603 | 10 | 289 | 1.6 | 6.4 | 0.00 | 0.38 | 0.00 | 91 | 1015.9 |
| 20260502022703 | 10 | 292 | 1.6 | 4.8 | 0.00 | 0.38 | 0.00 | 91 | 1016.0 |